Location: Владивосток
(43.1151°N, 131.8856°E)
Time: 00:46:03
(UTC+10:00)

FENGYUN 1C DEB - Visible Passes

Search period start: 05 October 2024 00:00
Search period end: 15 October 2024 00:00
Orbit: 698 x 882 km, 98.4° (Epoch: 03 October)

Date Brightness Start Highest point End Pass type
(mag) Time Alt. Az. Time Alt. Az. Time Alt. Az.
05 Oct ? 20:07:19 10° SSW 20:11:33 28° W 20:15:42 10° NW visible
06 Oct ? 19:37:07 10° S 19:41:55 54° W 19:46:37 10° NNW visible
07 Oct ? 19:07:31 10° SSE 19:12:23 78° ENE 19:17:09 10° N visible
07 Oct ? 20:50:55 10° WSW 20:52:26 11° W 20:53:57 10° WNW visible
08 Oct ? 20:18:52 10° SW 20:22:38 22° W 20:26:20 10° NW visible
09 Oct ? 06:51:11 10° ENE 06:53:31 13° E 06:55:52 10° ESE visible
09 Oct ? 19:48:21 10° S 19:52:57 42° W 19:57:27 10° NNW visible
10 Oct ? 19:18:31 10° SSE 19:23:21 82° WSW 19:28:07 10° NNW visible
11 Oct ? 20:30:34 10° SW 20:33:42 17° W 20:36:49 10° NW visible
12 Oct ? 19:59:39 10° SSW 20:03:57 32° W 20:08:13 10° NNW visible
13 Oct ? 19:29:34 10° S 19:34:19 64° WSW 19:39:01 10° NNW visible
14 Oct ? 19:00:04 10° SSE 19:04:48 66° ENE 19:09:29 10° N visible
14 Oct ? 20:42:32 10° WSW 20:44:47 13° W 20:47:00 10° WNW visible
